Clear Lake, IA

11:40 PM CDT on September 26, 2016 (GMT -0500)
Mason City Municipal

Weather History for KMCW - May, 2012

Change the Weather History Date:

Saturday, May 26, 2012

  Actual Average Record
Temperature  
Mean Temperature 67 °F 62 °F  
Max Temperature 76 °F 73 °F 93 °F (1967)
Min Temperature 57 °F 50 °F 31 °F (1961)
Degree Days  
Heating Degree Days 0 5  
Month to date heating degree days 89 214  
Since 1 July heating degree days 6073 7614  
Cooling Degree Days 2 2  
Month to date cooling degree days 49 19  
Year to date cooling degree days 62 24  
Growing Degree Days 16 (Base 50)    
Moisture  
Dew Point 61 °F    
Average Humidity 81    
Maximum Humidity 93    
Minimum Humidity 69    
Precipitation  
Precipitation 0.28 in 0.16 in 1.45 in (2013)
Month to date precipitation 2.41 3.89  
Year to date precipitation 10.94 11.69  
Snow  
Snow 0.00 in 0.00 in - ()
Month to date snowfall 0.0 0.1  
Since 1 July snowfall 18.8 41.3  
Snow Depth 0.00 in    
Sea Level Pressure  
Sea Level Pressure 29.96 in    
Wind  
Wind Speed 16 mph (ESE)    
Max Wind Speed 31 mph    
Max Gust Speed 40 mph    
Visibility 9 miles    
Events Rain , Thunderstorm    
T = Trace of Precipitation, MM = Missing Value Source: NWS Daily Summary

Daily Weather History Graph

Daily Weather History Graph

Search for Another Location

Airport or City:

Trip Planner

Search our weather history database for the weather conditions in past years. The results will help you decide how hot, cold, wet, or windy it might be!

Date:

Astronomy

May. 26, 2012 Rise Set
Actual Time 5:39 AM CDT 8:41 PM CDT
Civil Twilight 5:05 AM CDT 9:15 PM CDT
Nautical Twilight 4:22 AM CDT 9:59 PM CDT
Astronomical Twilight 3:30 AM CDT 10:51 PM CDT
Moon 10:45 AM CDT (5/26) 12:13 AM CDT (5/26)
Length of Visible Light 16h 10m
Length of Day
15h 02m
Waxing Crescent, 28% of the Moon is Illuminated
May 26
Waxing Crescent
May 28
First Quarter
Jun 4
Full
Jun 11
Last Quarter
Jun 19
New

Hourly Weather History & Observations

Time (CDT) Temp. Dew Point Humidity Pressure Visibility Wind Dir Wind Speed Gust Speed Precip Events Conditions
12:53 AM 61.0 °F 55.9 °F 83% 30.06 in 9.0 mi ENE 10.4 mph - N/A   Overcast
1:53 AM 61.0 °F 55.0 °F 81% 30.07 in 10.0 mi ESE 11.5 mph - N/A   Overcast
2:29 AM 60.8 °F 55.4 °F 82% 30.07 in 10.0 mi ESE 16.1 mph - N/A Thunderstorm Mostly Cloudy
2:53 AM 60.1 °F 55.0 °F 83% 30.05 in 9.0 mi ESE 12.7 mph 20.7 mph 0.02 in Rain , Thunderstorm Light Thunderstorms and Rain
3:53 AM 57.9 °F 55.9 °F 93% 30.11 in 6.0 mi East 9.2 mph - 0.14 in Rain , Thunderstorm Light Rain
4:53 AM 57.9 °F 55.9 °F 93% 30.07 in 8.0 mi ESE 13.8 mph - 0.07 in Rain Light Rain
5:53 AM 57.9 °F 55.0 °F 90% 29.95 in 10.0 mi SE 20.7 mph 39.1 mph 0.05 in   Clear
6:53 AM 59.0 °F 55.9 °F 90% 30.04 in 10.0 mi East 4.6 mph - N/A   Partly Cloudy
7:53 AM 61.0 °F 57.9 °F 90% 30.03 in 10.0 mi East 10.4 mph - N/A   Overcast
8:53 AM 63.0 °F 55.9 °F 78% 30.01 in 10.0 mi ESE 19.6 mph 25.3 mph N/A   Overcast
9:53 AM 66.0 °F 57.9 °F 75% 30.00 in 10.0 mi SE 17.3 mph 27.6 mph N/A   Partly Cloudy
10:53 AM 66.9 °F 57.9 °F 73% 29.98 in 10.0 mi SE 19.6 mph 31.1 mph N/A   Partly Cloudy
11:53 AM 70.0 °F 60.1 °F 71% 29.96 in 10.0 mi SE 19.6 mph 29.9 mph 0.00 in   Mostly Cloudy
12:53 PM 71.1 °F 62.1 °F 73% 30.00 in 10.0 mi East 12.7 mph - N/A   Mostly Cloudy
1:01 PM 69.8 °F 60.8 °F 73% 30.02 in 10.0 mi ENE 11.5 mph - N/A   Mostly Cloudy
1:53 PM 70.0 °F 61.0 °F 73% 29.95 in 9.0 mi ESE 20.7 mph 24.2 mph N/A   Overcast
2:33 PM 69.8 °F 62.6 °F 78% 29.90 in 9.0 mi East 26.5 mph 34.5 mph 0.00 in   Mostly Cloudy
2:53 PM 70.0 °F 62.1 °F 76% 29.92 in 9.0 mi SE 18.4 mph 27.6 mph 0.00 in   Clear
3:53 PM 73.9 °F 64.9 °F 73% 29.89 in 8.0 mi ESE 20.7 mph 29.9 mph N/A   Clear
4:53 PM 75.9 °F 64.9 °F 69% 29.88 in 8.0 mi SE 21.9 mph 31.1 mph N/A   Clear
5:53 PM 75.0 °F 64.9 °F 71% 29.87 in 9.0 mi ESE 19.6 mph 27.6 mph N/A   Partly Cloudy
6:53 PM 75.0 °F 66.0 °F 73% 29.86 in 8.0 mi ESE 15.0 mph 24.2 mph N/A   Clear
7:53 PM 73.9 °F 66.0 °F 76% 29.84 in 7.0 mi ESE 13.8 mph - N/A   Clear
8:53 PM 73.0 °F 66.0 °F 79% 29.85 in 8.0 mi ESE 15.0 mph - N/A   Scattered Clouds
9:53 PM 72.0 °F 66.0 °F 81% 29.86 in 8.0 mi SE 18.4 mph 25.3 mph N/A   Clear
10:53 PM 72.0 °F 66.9 °F 84% 29.85 in 7.0 mi SE 12.7 mph - N/A   Clear
11:53 PM 72.0 °F 68.0 °F 87% 29.83 in 6.0 mi SE 15.0 mph - N/A   Clear